Temperature
18 18 18 18 17 17 17 17 17 17 17 17 17 17 17 17 17 17 17 17 17 17 17 17 17 17 17 17 17 17 17 17 17 16 15 15 15 14 14 14 14 14 13
18 18 18 18 17 17 17 17 17 17 17 17 17 17 17 17 17 17 17 16 16 16 16 16 16 16 16 17 17 17 17 16 16 16 15 14 14 14 14 13 13 13 13
18 18 18 18 17 17 17 17 17 17 17 17 17 17 17 16 16 16 16 16 16 16 16 16 16 16 16 16 16 16 16 16 15 15 15 14 13 13 13 13 12 12 12
18 18 17 17 17 17 17 17 17 17 17 17 16 16 16 16 16 16 16 16 16 16 15 15 15 16 16 15 15 15 15 15 15 14 14 13 13 13 12 12 12 11 11
18 17 17 17 17 17 17 17 17 16 16 16 16 16 16 16 16 16 16 15 15 15 15 15 15 15 15 15 15 14 14 14 14 14 13 13 12 12 12 11 11 11 10
18 17 17 17 17 17 16 16 16 16 16 16 16 16 16 16 15 15 15 15 15 15 14 14 14 14 14 14 14 14 13 13 13 13 12 12 12 11 11 11 10 10 9
18 17 17 17 16 16 16 16 16 16 16 16 15 15 15 15 15 15 15 15 14 14 14 14 14 14 14 13 13 13 13 12 12 12 12 11 11 10 10 10 9 9 9
17 17 17 17 16 16 16 16 16 15 15 15 15 15 15 15 14 14 14 14 14 14 13 13 13 13 13 13 12 12 12 11 11 11 11 10 10 9 9 9 9 8 8
17 17 17 16 16 16 16 15 15 15 15 15 15 14 14 14 14 14 14 13 13 13 13 12 12 12 12 11 12 11 11 10 10 10 9 9 9 8 8 8 8 8 7
17 17 16 16 16 16 16 15 15 14 14 14 14 14 14 13 13 13 13 13 13 12 12 11 11 11 11 10 10 10 10 9 9 8 8 8 8 8 7 7 7 7 7
16 16 16 16 16 15 15 15 14 14 14 14 13 13 13 13 12 12 12 12 12 12 11 11 10 10 10 10 9 9 9 8 8 8 7 7 7 7 7 6 6 6 6
16 16 15 15 15 15 15 14 14 14 13 13 13 12 12 12 12 12 12 12 11 11 11 10 10 9 9 9 8 8 8 8 7 7 7 6 6 6 6 6 5 5 5
15 15 15 15 14 14 14 14 13 13 13 13 12 12 11 11 11 11 11 10 10 10 10 9 9 8 8 8 8 7 7 7 7 6 6 5 5 5 5 5 5 5 5
15 14 14 14 13 13 13 13 13 13 12 12 12 11 11 11 10 10 10 10 9 9 9 8 8 8 8 7 7 7 6 6 6 6 5 5 5 5 5 5 5 4 4
14 13 13 13 13 12 12 12 12 12 12 12 12 11 11 10 10 10 10 9 9 9 8 8 7 7 7 6 6 6 6 6 5 5 5 5 5 5 5 4 4 4 4
13 13 12 12 12 12 12 11 11 11 11 11 11 11 10 10 9 9 9 8 8 8 8 7 7 7 6 6 6 6 5 5 5 5 5 5 5 5 4 4 4 4 4
13 12 12 12 11 11 11 11 11 10 10 10 10 9 9 9 9 8 8 8 7 7 7 7 6 6 6 6 6 5 5 5 5 5 5 5 5 4 4 4 4 4 4
12 12 11 11 11 11 11 10 10 10 9 9 8 8 8 8 8 8 7 7 7 7 7 6 6 6 6 5 5 5 5 5 5 5 4 4 4 4 4 4 4 4 4
11 11 11 10 10 10 10 10 9 9 9 9 8 8 7 7 7 7 7 7 7 6 6 6 6 6 6 5 5 5 5 5 5 4 4 4 4 4 4 4 4 4 4
10 10 10 10 10 10 9 9 9 9 9 8 8 8 7 7 7 6 6 6 6 6 6 6 6 5 5 5 5 5 5 5 5 5 4 4 4 4 4 4 4 4 4
10 9 9 9 9 9 9 9 8 8 8 8 7 7 7 7 7 6 6 6 6 6 6 6 5 5 5 5 5 5 5 5 5 4 4 4 4 4 4 4 4 4 4
9 9 9 9 9 9 8 8 8 8 8 7 7 7 7 6 6 6 6 6 6 6 6 6 5 5 5 5 5 5 5 5 5 4 4 4 4 4 4 4 4 4 4
9 8 8 8 8 8 8 8 8 8 7 7 7 7 6 6 6 6 6 6 6 6 5 5 5 5 5 5 5 5 5 5 5 4 4 4 4 4 4 4 4 4 4
8 8 8 8 8 8 8 8 8 7 7 7 7 7 6 6 6 6 6 6 6 6 6 5 5 5 5 5 5 5 5 5 5 4 4 4 4 4 4 4 4 4 4
8 8 8 8 8 8 8 8 8 7 7 7 7 7 6 6 6 6 6 6 6 6 6 6 5 5 5 5 5 5 5 5 4 4 4 4 4 4 4 4 4 4 4
8 8 8 8 8 8 8 8 8 7 7 7 7 7 6 6 6 6 6 6 6 6 6 6 6 5 5 5 5 5 5 5 4 4 4 4 4 4 4 4 4 4 4
Wind_Speed
6 6 6 5 5 5 5 5 5 5 5 6 6 6 6 6 6 6 5 5 5 4 3 4 3 3 3 3 3 3 3 4 5 2 3 3 4 5 7 9 8 9 9
6 6 6 6 5 5 4 4 4 4 5 5 6 6 7 7 6 7 6 5 5 5 4 4 4 4 5 4 4 4 4 4 6 6 3 3 4 4 5 6 7 8 9
6 6 6 5 5 5 4 4 3 4 4 5 5 6 6 6 7 6 6 5 5 4 4 5 5 6 6 4 5 5 4 5 6 6 4 3 4 3 4 5 6 6 7
6 6 6 5 5 5 4 4 4 4 4 4 5 5 6 6 6 6 6 6 6 5 5 5 4 6 6 6 5 5 6 7 7 7 5 3 3 2 4 4 4 3 3
7 6 6 5 4 4 3 3 3 3 4 4 5 5 5 5 6 8 7 8 8 7 6 6 6 9 9 7 6 5 7 7 7 7 5 4 4 3 2 1 3 2 3
7 6 6 5 5 4 4 4 4 4 4 4 5 5 5 5 9 11 11 9 9 9 9 8 8 10 13 15 14 11 9 9 8 6 5 5 3 2 2 3 3 3 2
7 6 6 6 6 5 5 5 5 4 5 5 5 5 6 7 10 12 12 10 9 8 8 8 8 8 10 10 14 16 14 13 10 8 7 5 4 2 3 4 4 4 2
7 6 7 7 6 5 5 5 5 4 5 5 5 6 7 8 11 12 13 10 9 8 7 7 9 8 8 10 11 11 9 8 9 8 8 6 5 4 4 4 4 4 3
7 7 7 7 7 7 6 5 5 5 6 5 6 7 8 8 11 12 12 9 9 8 7 7 8 8 11 13 12 11 10 8 13 15 14 12 11 10 8 5 4 5 3
6 6 6 7 8 8 7 6 5 6 6 6 6 7 8 8 9 12 12 9 10 8 7 7 9 10 11 11 10 10 9 6 6 8 9 9 9 10 9 6 4 4 2
6 6 6 6 7 7 7 6 7 7 7 7 8 6 6 8 9 10 11 8 9 9 7 6 6 12 12 11 9 8 8 7 6 7 6 5 5 5 6 6 4 4 3
6 7 6 6 6 7 7 6 7 8 8 8 8 7 6 6 7 9 11 11 11 10 8 6 7 13 12 11 8 9 11 8 6 6 5 4 3 3 2 4 5 4 3
7 6 6 6 6 7 8 8 7 6 6 7 7 7 6 5 7 11 13 13 13 9 7 10 11 13 11 9 10 11 9 7 6 5 4 2 1 1 2 4 6 6 6
7 6 6 6 6 6 5 5 6 6 6 7 7 7 7 6 6 6 7 9 12 10 8 10 12 11 8 7 7 6 5 5 6 5 4 2 2 2 2 2 2 2 3
7 6 6 6 6 6 5 4 4 3 5 8 7 7 9 8 7 9 9 7 7 8 9 6 5 4 4 4 4 5 4 5 5 3 4 3 3 2 2 2 2 2 2
6 6 5 6 6 7 7 7 11 8 8 9 9 8 6 9 13 13 12 13 12 13 9 6 5 4 4 4 5 4 3 3 3 3 3 3 3 2 1 1 2 2 1
6 6 6 6 6 7 7 8 7 8 12 11 11 12 13 14 14 14 13 13 12 11 6 5 4 4 4 4 4 4 3 2 3 4 3 3 2 2 2 1 1 1 1
6 7 7 6 6 6 7 7 7 8 8 6 7 10 13 14 14 13 13 11 6 4 4 5 5 5 5 5 4 4 3 3 2 3 3 2 2 2 1 1 1 1 0
6 6 6 6 6 6 7 7 7 8 8 7 6 6 8 10 10 10 9 5 6 5 4 4 4 5 5 5 5 4 4 3 3 3 2 2 2 2 1 1 1 0 0
5 10 9 7 7 7 7 7 7 7 7 7 7 6 6 6 5 5 4 4 4 4 4 4 4 5 5 5 5 4 4 4 3 3 2 2 2 2 2 1 1 1 1
5 8 11 8 6 6 6 7 7 7 7 7 6 6 8 6 6 6 5 4 4 5 5 5 5 5 5 5 5 5 5 4 4 4 3 3 2 2 1 1 1 1 2
5 5 5 6 6 6 6 7 6 6 7 7 5 5 8 5 5 5 5 4 5 4 5 5 5 4 6 6 6 6 5 5 4 4 4 3 2 2 1 1 1 1 2
5 5 5 5 5 7 7 6 6 6 6 6 6 5 5 4 4 4 4 4 4 5 7 8 6 6 9 12 12 11 7 7 7 7 5 4 3 2 2 2 2 2 3
5 5 5 5 5 6 6 7 6 7 7 7 6 6 6 5 5 5 4 4 4 6 9 10 10 11 12 12 13 14 14 14 13 12 10 6 4 3 2 2 3 3 4
4 4 5 5 6 6 6 6 6 6 7 7 7 6 6 6 5 5 5 5 6 6 9 11 12 13 15 15 15 15 15 15 14 13 11 8 4 4 3 4 3 4 4
4 4 4 5 5 5 6 6 7 7 7 7 7 7 7 7 6 6 5 5 6 6 8 10 13 15 16 16 17 18 18 17 16 14 12 9 5 4 4 4 5 4 5
Wind_Direction
167 169 166 167 168 170 180 189 188 189 183 179 178 180 178 173 166 155 156 153 154 154 151 144 140 128 115 101 100 105 117 124 130 109 60 62 72 85 86 93 94 95 94
169 165 164 164 166 169 179 186 181 178 179 175 173 175 177 170 162 154 157 157 151 151 150 132 126 117 103 100 102 102 108 116 130 127 89 61 68 86 96 92 85 91 91
161 161 161 163 167 171 177 175 171 173 172 170 165 168 167 161 157 156 154 150 141 137 135 131 129 120 107 99 97 101 104 106 107 122 116 78 67 72 75 73 76 75 83
157 158 164 171 173 177 174 169 169 165 164 169 165 160 157 152 150 147 142 132 120 107 105 110 113 118 121 114 105 106 109 106 106 112 107 85 69 60 77 74 63 43 59
156 162 172 168 158 150 143 142 137 138 148 147 142 141 143 146 149 145 139 132 121 109 98 94 99 106 108 108 112 112 114 112 110 110 104 90 75 72 78 72 83 67 49
158 164 160 148 143 140 139 134 128 129 125 120 127 133 134 143 142 141 138 131 128 124 115 100 92 89 92 89 90 93 106 119 124 117 113 111 109 95 87 95 96 82 44
156 154 149 145 142 141 139 130 130 126 119 117 119 122 125 130 132 132 132 131 128 128 125 121 111 100 93 94 86 81 78 85 104 125 122 123 125 136 110 91 87 94 95
150 151 149 145 143 139 134 132 127 119 118 121 122 123 122 123 123 123 120 115 112 111 114 118 118 113 109 107 100 88 77 70 86 95 108 108 113 112 110 123 120 100 66
150 153 154 150 146 141 136 131 125 119 114 114 116 117 119 118 120 122 118 113 108 101 101 106 115 114 116 111 107 102 91 78 85 94 96 94 89 89 97 90 82 85 59
156 155 151 150 151 150 144 136 125 121 117 111 107 113 121 124 124 123 122 120 116 109 97 97 108 116 119 115 112 112 108 104 99 88 77 72 71 70 76 97 121 113 104
140 134 133 136 139 137 132 128 125 120 115 110 108 105 112 122 120 120 125 129 130 123 117 109 106 110 110 111 113 117 130 128 112 104 92 79 65 57 54 66 103 131 129
129 128 127 128 131 130 125 122 123 126 123 117 110 100 92 100 112 118 121 124 128 127 126 122 116 112 107 104 101 111 115 111 105 100 95 88 81 68 49 57 69 83 121
127 128 128 125 124 130 132 132 128 127 131 129 126 122 112 97 101 110 116 119 118 114 118 120 114 107 98 90 93 100 103 107 109 107 107 108 115 100 70 54 46 52 50
135 134 132 134 129 125 128 137 141 143 143 141 140 137 130 123 123 121 121 116 112 110 112 112 104 95 88 89 88 87 90 110 118 121 123 114 86 68 60 62 64 41 35
136 137 134 134 134 124 108 92 126 137 158 153 154 151 149 151 155 145 139 133 134 132 125 110 101 99 94 89 86 89 93 100 101 108 112 102 86 74 54 53 79 73 63
142 144 143 139 136 131 123 92 58 74 96 110 122 133 127 133 136 132 128 126 128 135 125 128 130 128 131 130 123 113 104 110 116 119 116 117 115 107 78 50 72 81 64
152 152 146 144 144 143 140 133 116 75 72 87 108 121 128 133 131 131 130 128 131 131 121 132 141 149 149 147 144 139 137 139 131 128 129 129 128 122 111 86 61 54 22
147 148 143 143 144 143 142 139 138 136 126 97 87 111 126 130 131 132 132 124 122 121 133 146 157 160 157 155 155 152 147 138 129 130 131 133 133 132 128 121 110 138 214
138 139 137 136 137 136 135 133 132 131 131 129 120 111 121 125 127 133 135 134 149 156 157 159 161 160 158 159 160 157 151 151 152 146 144 149 145 133 134 154 182 249 169
135 140 140 138 138 137 137 136 136 138 139 143 148 151 149 138 141 150 151 146 149 158 160 158 163 164 159 159 159 155 151 151 151 149 154 155 150 140 148 162 178 208 244
125 138 139 136 139 141 141 143 145 146 148 152 158 168 164 157 159 164 166 167 165 165 164 162 164 167 164 159 157 159 158 160 162 160 160 161 152 144 160 175 201 222 255
123 126 131 133 134 137 139 140 142 146 150 152 154 160 167 158 163 170 181 188 182 177 175 167 174 178 176 170 163 158 159 166 170 167 166 168 162 160 164 191 249 272 271
120 122 124 129 135 141 139 140 143 146 148 151 154 157 165 172 175 179 189 193 186 184 185 181 176 179 182 182 178 170 169 179 182 175 169 171 171 178 186 212 246 263 270
136 142 144 146 144 144 147 150 154 157 159 161 165 169 176 182 184 189 190 185 183 189 187 186 184 183 179 179 181 182 183 185 184 183 179 173 180 192 202 226 249 257 265
149 149 148 150 153 153 154 158 161 164 167 172 176 177 180 186 192 198 197 191 189 195 195 190 187 185 184 185 187 190 190 190 191 193 191 184 187 200 214 233 245 259 264
153 154 153 155 160 162 163 166 169 171 174 179 182 184 188 193 198 201 198 195 196 198 197 193 194 193 192 194 196 197 197 200 204 206 202 195 196 212 219 236 254 257 268
Height
1518 1520 1522 1524 1526 1528 1530 1532 1533 1535 1537 1539 1541 1542 1544 1546 1549 1551 1553 1555 1556 1557 1559 1560 1561 1562 1563 1564 1565 1566 1568 1569 1569 1571 1572 1574 1574 1575 1575 1576 1576 1576 1576
1517 1519 1521 1523 1524 1526 1528 1529 1531 1532 1534 1535 1537 1539 1541 1543 1545 1547 1550 1551 1553 1555 1556 1557 1558 1559 1560 1561 1562 1564 1565 1566 1567 1568 1570 1571 1572 1573 1574 1574 1574 1575 1574
1517 1519 1520 1521 1523 1524 1526 1527 1528 1529 1531 1532 1534 1536 1538 1540 1542 1544 1547 1548 1550 1552 1553 1555 1556 1557 1558 1559 1560 1561 1563 1564 1565 1566 1567 1569 1570 1571 1571 1572 1572 1572 1572
1517 1518 1519 1520 1521 1523 1524 1525 1526 1527 1528 1529 1531 1533 1535 1537 1539 1541 1543 1545 1547 1549 1550 1552 1553 1554 1555 1556 1558 1559 1561 1562 1563 1564 1565 1566 1568 1568 1569 1570 1570 1570 1570
1516 1517 1518 1519 1520 1521 1522 1523 1524 1525 1526 1527 1529 1531 1532 1534 1536 1538 1540 1542 1544 1546 1548 1549 1551 1552 1553 1554 1556 1557 1559 1560 1561 1562 1563 1564 1565 1566 1566 1567 1568 1568 1568
1514 1516 1517 1518 1519 1520 1521 1522 1522 1523 1524 1526 1527 1528 1530 1531 1533 1536 1538 1540 1542 1544 1546 1547 1549 1550 1551 1553 1554 1556 1557 1558 1559 1560 1561 1562 1562 1563 1564 1565 1565 1566 1566
1513 1515 1516 1517 1518 1519 1520 1520 1521 1522 1523 1524 1525 1526 1528 1530 1532 1534 1536 1538 1540 1542 1544 1545 1546 1548 1550 1551 1552 1554 1555 1556 1558 1559 1559 1560 1561 1561 1562 1563 1563 1564 1564
1512 1513 1514 1515 1516 1517 1518 1519 1520 1520 1521 1522 1523 1525 1526 1528 1530 1532 1534 1536 1538 1540 1542 1543 1545 1546 1548 1550 1551 1552 1553 1555 1556 1557 1558 1559 1560 1560 1561 1562 1562 1562 1563
1510 1511 1513 1514 1515 1516 1516 1517 1518 1518 1519 1520 1521 1523 1525 1527 1529 1531 1532 1534 1536 1537 1540 1541 1543 1545 1546 1548 1550 1550 1552 1553 1555 1556 1557 1558 1559 1559 1560 1561 1561 1561 1561
1508 1510 1511 1512 1513 1514 1515 1516 1517 1517 1518 1519 1520 1521 1523 1525 1527 1529 1531 1532 1534 1536 1538 1540 1542 1544 1546 1547 1549 1549 1551 1552 1554 1555 1556 1557 1558 1559 1559 1559 1560 1560 1560
1507 1508 1509 1510 1511 1512 1513 1514 1515 1516 1516 1517 1518 1520 1522 1524 1526 1528 1530 1531 1533 1535 1537 1539 1541 1544 1545 1547 1548 1549 1551 1552 1553 1555 1556 1557 1558 1558 1558 1558 1559 1559 1559
1505 1506 1507 1509 1510 1511 1511 1512 1513 1514 1515 1516 1517 1519 1521 1523 1525 1527 1529 1530 1532 1534 1535 1538 1540 1543 1545 1546 1548 1549 1550 1552 1553 1555 1556 1557 1557 1558 1558 1558 1558 1558 1558
1503 1504 1505 1506 1507 1509 1510 1511 1511 1513 1514 1515 1516 1518 1520 1522 1524 1526 1528 1529 1531 1533 1535 1538 1540 1542 1544 1546 1548 1549 1550 1552 1553 1554 1555 1557 1557 1558 1558 1559 1559 1559 1559
1500 1501 1503 1504 1505 1506 1508 1509 1510 1511 1512 1514 1515 1516 1519 1521 1523 1525 1527 1529 1531 1533 1535 1538 1540 1542 1544 1546 1548 1550 1551 1552 1554 1555 1556 1557 1558 1559 1559 1559 1559 1559 1559
1497 1499 1500 1501 1503 1504 1505 1507 1508 1510 1511 1512 1514 1516 1517 1519 1522 1525 1526 1529 1531 1533 1535 1538 1540 1542 1544 1546 1548 1550 1552 1553 1554 1556 1557 1558 1558 1559 1559 1560 1560 1559 1559
1495 1496 1497 1499 1500 1501 1503 1505 1507 1509 1511 1513 1514 1516 1518 1520 1522 1524 1527 1530 1532 1534 1536 1537 1540 1542 1544 1546 1548 1550 1552 1554 1555 1557 1558 1558 1558 1559 1560 1560 1560 1559 1559
1493 1493 1495 1496 1498 1499 1501 1503 1504 1507 1510 1512 1513 1515 1517 1519 1522 1525 1527 1530 1532 1534 1536 1538 1540 1542 1545 1547 1549 1550 1552 1554 1555 1557 1558 1558 1559 1559 1559 1559 1559 1559 1558
1490 1491 1493 1494 1496 1498 1500 1501 1503 1505 1507 1510 1513 1515 1517 1520 1522 1525 1527 1530 1532 1534 1536 1538 1541 1543 1545 1547 1549 1550 1552 1554 1556 1557 1558 1558 1559 1559 1559 1559 1558 1558 1558
1488 1489 1491 1493 1495 1497 1499 1501 1503 1505 1506 1509 1511 1514 1517 1520 1522 1525 1527 1529 1532 1534 1536 1539 1541 1543 1545 1547 1549 1551 1553 1554 1555 1556 1557 1558 1558 1558 1558 1558 1558 1558 1557
1487 1488 1490 1492 1494 1496 1498 1500 1502 1504 1506 1508 1511 1513 1516 1519 1521 1524 1527 1529 1532 1534 1536 1539 1541 1543 1545 1547 1549 1550 1552 1553 1555 1556 1556 1557 1557 1557 1557 1557 1557 1556 1556
1486 1488 1490 1492 1494 1496 1498 1500 1502 1504 1506 1509 1511 1514 1516 1519 1521 1524 1527 1529 1532 1534 1536 1539 1541 1543 1545 1547 1548 1550 1551 1552 1553 1554 1555 1555 1555 1555 1555 1555 1555 1555 1554
1487 1488 1490 1492 1494 1496 1498 1500 1503 1505 1507 1509 1511 1514 1517 1519 1522 1524 1527 1530 1532 1534 1537 1539 1541 1543 1544 1546 1547 1549 1550 1551 1552 1553 1553 1553 1553 1554 1554 1554 1553 1553 1552
1489 1490 1492 1494 1496 1498 1500 1502 1504 1506 1508 1510 1513 1515 1517 1519 1522 1525 1527 1530 1532 1534 1536 1538 1540 1542 1543 1545 1546 1547 1548 1549 1551 1551 1551 1551 1551 1551 1551 1551 1551 1550 1549
1491 1492 1494 1495 1497 1499 1501 1503 1505 1507 1510 1511 1514 1516 1518 1520 1522 1525 1527 1529 1532 1534 1536 1537 1539 1540 1542 1543 1544 1546 1547 1548 1549 1549 1549 1549 1549 1549 1549 1549 1548 1547 1546
1493 1495 1496 1497 1499 1501 1502 1504 1506 1508 1510 1512 1514 1516 1518 1520 1522 1525 1527 1529 1531 1533 1534 1536 1537 1538 1540 1541 1543 1544 1545 1545 1546 1547 1547 1546 1546 1546 1546 1545 1545 1544 1543
1495 1497 1498 1499 1501 1502 1503 1505 1506 1508 1510 1512 1514 1516 1518 1520 1522 1524 1526 1528 1530 1531 1533 1534 1535 1536 1538 1539 1540 1541 1542 1543 1543 1543 1543 1543 1543 1543 1542 1542 1541 1540 1539